DW8622 Weather Reports


time (UTC)temp
F
wind
direction
speed
knots
gust
knots
rain 1hr
in
rain 24hr
in
rain mn
in
humidity
%
barometer
mb
20210920061506 53 42 4.3 8.7 0.00 0.00 0.00 81 1019.3
20210920061006 52 42 3.5 6.1 0.00 0.00 0.00 81 1019.2
20210920060506 52 38 4.3 7.8 0.00 0.00 0.00 81 1019.1
20210920060006 52 35 5.2 7.8 0.00 0.00 0.00 81 1019.1
20210920055506 52 34 5.2 7.8 0.00 0.00 0.00 81 1019.1
20210920055006 52 35 4.3 7.8 0.00 0.00 0.00 81 1019.0
20210920054506 52 36 4.3 7.0 0.00 0.00 0.00 81 1019.0
20210920054005 52 38 3.5 7.0 0.00 0.00 0.00 81 1019.0
20210920053505 52 40 3.5 7.0 0.00 0.00 0.00 81 1018.9
20210920053006 52 41 3.5 7.0 0.00 0.00 0.00 81 1018.9
20210920052506 52 39 4.3 7.0 0.00 0.00 0.00 81 1018.9
20210920052006 52 36 4.3 7.0 0.00 0.00 0.00 81 1018.9
20210920051506 52 37 4.3 7.0 0.00 0.00 0.00 81 1018.8
20210920051005 52 41 4.3 7.0 0.00 0.00 0.00 81 1018.7
20210920050506 52 43 4.3 7.0 0.00 0.00 0.00 81 1018.7
20210920050005 52 44 4.3 7.0 0.00 0.00 0.00 81 1018.6
20210920045506 52 41 4.3 7.0 0.00 0.00 0.00 81 1018.6
20210920045006 52 39 4.3 7.0 0.00 0.00 0.00 81 1018.5
20210920044506 52 37 4.3 7.0 0.00 0.00 0.00 81 1018.5
20210920044006 52 36 4.3 7.8 0.00 0.00 0.00 81 1018.5
20210920043506 52 40 4.3 7.8 0.00 0.00 0.00 81 1018.4
20210920043006 53 43 4.3 7.0 0.00 0.00 0.00 81 1018.3
20210920042506 53 41 3.5 7.0 0.00 0.00 0.00 81 1018.3
20210920042005 53 39 4.3 7.8 0.00 0.00 0.00 81 1018.2
20210920041506 53 39 4.3 7.8 0.00 0.00 0.00 81 1018.2
20210920041006 53 39 4.3 7.0 0.00 0.00 0.00 81 1018.2
20210920040505 53 39 4.3 7.0 0.00 0.00 0.00 81 1018.2
20210920040006 53 43 5.2 7.8 0.00 0.00 0.00 81 1018.1
20210920035506 53 45 5.2 7.8 0.00 0.00 0.00 81 1018.1
20210920035006 53 42 5.2 7.8 0.00 0.00 0.00 81 1018.0
20210920034506 53 41 4.3 7.0 0.00 0.00 0.00 81 1018.0
20210920034005 54 37 4.3 7.0 0.00 0.00 0.00 81 1018.0
20210920033506 54 33 4.3 7.0 0.00 0.00 0.00 81 1018.0
20210920033006 54 32 4.3 7.0 0.00 0.00 0.00 81 1018.0
20210920032507 54 36 3.5 7.0 0.00 0.00 0.00 81 1018.0
20210920032006 54 46 4.3 7.0 0.00 0.00 0.00 81 1017.9
20210920031506 54 48 5.2 7.0 0.00 0.00 0.00 81 1017.8
20210920031006 54 46 5.2 7.8 0.00 0.00 0.00 81 1017.7
20210920030507 54 46 4.3 7.8 0.00 0.00 0.00 81 1017.7
20210920030006 54 47 4.3 7.8 0.00 0.00 0.00 81 1017.6
20210920025506 54 49 5.2 7.8 0.00 0.00 0.00 81 1017.6
20210920025005 54 49 5.2 7.8 0.00 0.00 0.00 81 1017.5
20210920024505 54 49 4.3 7.8 0.00 0.00 0.00 81 1017.5
20210920024006 54 49 3.5 6.1 0.00 0.00 0.00 81 1017.5
20210920023506 54 49 4.3 7.0 0.00 0.00 0.00 81 1017.5
20210920023006 54 50 4.3 7.0 0.00 0.00 0.00 81 1017.5
20210920022505 54 48 4.3 7.0 0.00 0.00 0.00 81 1017.4
20210920022005 54 48 4.3 7.0 0.00 0.00 0.00 81 1017.4
20210920021506 54 48 5.2 7.8 0.00 0.00 0.00 81 1017.3
20210920021005 54 46 5.2 7.8 0.00 0.00 0.00 81 1017.3
20210920020505 54 47 5.2 7.8 0.00 0.00 0.00 81 1017.2
20210920020006 55 48 5.2 7.0 0.00 0.00 0.00 81 1017.2
20210920015506 55 49 5.2 7.0 0.00 0.00 0.00 81 1017.2
20210920015006 55 48 5.2 7.0 0.00 0.00 0.00 81 1017.2
20210920014506 55 48 5.2 7.8 0.00 0.00 0.00 81 1017.2
20210920014006 55 48 5.2 7.8 0.00 0.00 0.00 81 1017.2
20210920013506 55 49 5.2 7.8 0.00 0.00 0.00 81 1017.2
20210920013006 55 49 5.2 7.0 0.00 0.00 0.00 81 1017.2
20210920012506 55 49 4.3 7.0 0.00 0.00 0.00 81 1017.2
20210920012006 55 50 4.3 7.0 0.00 0.00 0.00 81 1017.2
20210920011506 55 50 4.3 7.0 0.00 0.00 0.00 81 1017.2
20210920011006 55 46 4.3 7.8 0.00 0.00 0.00 81 1017.2
20210920010506 55 45 3.5 7.8 0.00 0.00 0.00 81 1017.2
20210920010006 55 48 2.6 6.1 0.00 0.00 0.00 81 1017.2
20210920005506 55 51 2.6 5.2 0.00 0.00 0.00 81 1017.2
20210920005006 55 49 3.5 5.2 0.00 0.00 0.00 81 1017.2
20210920004506 56 47 3.5 5.2 0.00 0.00 0.00 81 1017.2
20210920004006 56 48 2.6 5.2 0.00 0.00 0.00 81 1017.1
20210920003506 56 48 2.6 6.1 0.00 0.00 0.00 81 1017.2
20210920003006 56 48 3.5 6.1 0.00 0.00 0.00 81 1017.2
20210920002506 56 49 2.6 5.2 0.00 0.00 0.00 81 1017.2
20210920002004 56 51 1.7 5.2 0.00 0.00 0.00 81 1017.1
20210920001504 55 50 1.7 5.2 0.00 0.00 0.00 81 1017.0
20210920001005 55 48 2.6 5.2 0.00 0.00 0.00 82 1017.1
20210920000505 55 48 2.6 5.2 0.00 0.00 0.00 81 1017.1
20210920000005 55 48 2.6 5.2 0.00 0.00 0.00 81 1017.1
20210919235504 55 48 2.6 5.2 0.00 0.00 0.00 82 1017.1
20210919235004 55 47 2.6 5.2 0.00 0.00 0.00 82 1017.1
20210919234505 54 47 2.6 5.2 0.00 0.00 0.00 82 1017.1
20210919234005 54 50 3.5 6.1 0.00 0.00 0.00 82 1017.1
20210919233505 54 50 3.5 6.1 0.00 0.00 0.00 82 1017.0
20210919233005 54 50 3.5 5.2 0.00 0.00 0.00 82 1017.0
20210919232505 54 50 2.6 5.2 0.00 0.00 0.00 82 1017.0
20210919232005 54 50 3.5 5.2 0.00 0.00 0.00 82 1017.0
20210919231505 54 49 2.6 5.2 0.00 0.00 0.00 82 1017.0
20210919231005 54 50 2.6 3.5 0.00 0.00 0.00 82 1017.0
20210919230505 54 51 1.7 3.5 0.00 0.00 0.00 82 1017.0
20210919230005 54 52 2.6 5.2 0.00 0.00 0.00 82 1017.0
20210919225504 54 50 2.6 5.2 0.00 0.00 0.00 82 1016.9
20210919225005 54 49 2.6 5.2 0.00 0.00 0.00 82 1016.8
20210919224505 54 49 2.6 5.2 0.00 0.00 0.00 82 1016.8
20210919224005 54 49 2.6 3.5 0.00 0.00 0.00 82 1016.8
20210919223505 54 51 2.6 5.2 0.00 0.00 0.00 82 1016.7
20210919223005 54 52 3.5 5.2 0.00 0.00 0.00 82 1016.7
20210919222505 54 51 3.5 5.2 0.00 0.00 0.00 82 1016.7
20210919222004 54 51 3.5 5.2 0.00 0.00 0.00 82 1016.6
20210919221505 55 49 2.6 5.2 0.00 0.00 0.00 82 1016.6
20210919221005 55 49 2.6 5.2 0.00 0.00 0.00 82 1016.6
20210919220505 55 49 3.5 5.2 0.00 0.00 0.00 82 1016.5
20210919220005 56 47 2.6 5.2 0.00 0.00 0.00 82 1016.5
20210919215505 56 48 2.6 5.2 0.00 0.00 0.00 82 1016.4
20210919215005 55 49 2.6 5.2 0.00 0.00 0.00 82 1016.4
20210919214505 55 50 2.6 3.5 0.00 0.00 0.00 82 1016.4
20210919214005 55 51 1.7 3.5 0.00 0.00 0.00 82 1016.4
20210919213504 55 54 0.0 3.5 0.00 0.00 0.00 82 1016.4
20210919213004 55 47 0.0 2.6 0.00 0.00 0.00 82 1016.3
20210919212504 55 50 0.9 2.6 0.00 0.00 0.00 82 1016.2
20210919212004 55 50 1.7 3.5 0.00 0.00 0.00 82 1016.1
20210919211505 55 50 2.6 3.5 0.00 0.00 0.00 82 1016.1
20210919211004 55 52 2.6 5.2 0.00 0.00 0.00 82 1016.0
20210919210504 55 52 2.6 5.2 0.00 0.00 0.00 82 1016.0
20210919210005 55 53 2.6 3.5 0.00 0.00 0.00 82 1016.0
20210919205504 55 53 2.6 3.5 0.00 0.00 0.00 82 1016.0
20210919205005 55 53 2.6 3.5 0.00 0.00 0.00 82 1015.9
20210919204505 55 53 2.6 3.5 0.00 0.00 0.00 82 1015.9
20210919204004 55 54 2.6 5.2 0.00 0.00 0.00 82 1015.9
20210919203504 55 54 2.6 5.2 0.00 0.00 0.00 82 1015.9
20210919203005 55 53 2.6 3.5 0.00 0.00 0.00 82 1015.8
20210919202505 56 52 1.7 3.5 0.00 0.00 0.00 82 1015.7
20210919202004 56 51 1.7 3.5 0.00 0.00 0.00 82 1015.8
20210919201505 56 50 2.6 3.5 0.00 0.00 0.00 82 1015.7
20210919201005 56 51 2.6 5.2 0.00 0.00 0.00 81 1015.8
20210919200505 56 51 2.6 5.2 0.00 0.00 0.00 81 1015.8
20210919200004 56 52 2.6 5.2 0.00 0.00 0.00 81 1015.7
20210919195505 57 51 2.6 3.5 0.00 0.00 0.00 81 1015.7
20210919195005 57 49 2.6 3.5 0.00 0.00 0.00 81 1015.7
20210919194504 58 49 2.6 6.1 0.00 0.00 0.00 81 1015.6
20210919194005 58 49 2.6 6.1 0.00 0.00 0.00 81 1015.6
20210919193504 58 47 2.6 5.2 0.00 0.00 0.00 81 1015.5
20210919193005 58 48 2.6 3.5 0.00 0.00 0.00 81 1015.5
20210919192505 58 50 2.6 3.5 0.00 0.00 0.00 81 1015.4
20210919192004 58 50 2.6 3.5 0.00 0.00 0.00 81 1015.4
20210919191505 58 50 2.6 3.5 0.00 0.00 0.00 81 1015.3
20210919191004 59 51 2.6 5.2 0.00 0.00 0.00 81 1015.3
20210919190505 59 51 3.5 5.2 0.00 0.00 0.00 81 1015.2
20210919190005 59 51 3.5 5.2 0.00 0.00 0.00 81 1015.1
20210919185505 59 51 2.6 5.2 0.00 0.00 0.00 81 1015.1
20210919185004 59 49 2.6 5.2 0.00 0.00 0.00 81 1015.1
20210919184505 60 50 3.5 6.1 0.00 0.00 0.00 81 1015.0
20210919184004 59 51 4.3 6.1 0.00 0.00 0.00 81 1015.0
20210919183505 59 50 4.3 6.1 0.00 0.00 0.00 81 1015.0
20210919183004 59 51 3.5 5.2 0.00 0.00 0.00 81 1015.0
20210919182504 59 51 3.5 5.2 0.00 0.00 0.00 81 1014.9
20210919182005 59 51 3.5 5.2 0.00 0.00 0.00 81 1014.8
20210919181505 59 51 3.5 5.2 0.00 0.00 0.00 81 1014.8
20210919181004 59 51 2.6 5.2 0.00 0.00 0.00 81 1014.8
20210919180504 59 51 3.5 5.2 0.00 0.00 0.00 81 1014.7
20210919180004 60 52 3.5 5.2 0.00 0.00 0.00 81 1014.8
20210919175505 60 52 3.5 5.2 0.00 0.00 0.00 81 1014.7
20210919175005 60 51 3.5 5.2 0.00 0.00 0.00 80 1014.6
20210919174505 60 52 3.5 5.2 0.00 0.00 0.00 81 1014.6
20210919174005 61 51 3.5 5.2 0.00 0.00 0.00 81 1014.6
20210919173505 61 50 3.5 5.2 0.00 0.00 0.00 80 1014.6
20210919173005 61 50 3.5 5.2 0.00 0.00 0.00 80 1014.5
20210919172504 62 51 3.5 5.2 0.00 0.00 0.00 80 1014.5
20210919172004 62 51 3.5 5.2 0.00 0.00 0.00 80 1014.4
20210919171504 62 50 2.6 5.2 0.00 0.00 0.00 80 1014.4
20210919171004 62 50 2.6 5.2 0.00 0.00 0.00 80 1014.4
20210919170504 63 50 2.6 5.2 0.00 0.00 0.00 80 1014.3
20210919170006 63 49 2.6 3.5 0.00 0.00 0.00 80 1014.3
20210919165505 64 50 2.6 5.2 0.00 0.00 0.00 80 1014.3
20210919165005 64 50 3.5 5.2 0.00 0.00 0.00 79 1014.2
20210919164505 64 51 3.5 5.2 0.00 0.00 0.00 79 1014.2
20210919164006 64 52 3.5 5.2 0.00 0.00 0.00 79 1014.3
20210919163505 65 51 3.5 6.1 0.00 0.00 0.00 79 1014.2
20210919163005 65 50 3.5 6.1 0.00 0.00 0.00 79 1014.2
20210919162504 65 49 2.6 5.2 0.00 0.00 0.00 79 1014.2
20210919162005 66 50 2.6 5.2 0.00 0.00 0.00 78 1014.2
20210919161505 66 50 2.6 5.2 0.00 0.00 0.00 78 1014.1
20210919161004 66 49 3.5 6.1 0.00 0.00 0.00 78 1014.1
20210919160505 67 49 3.5 6.1 0.00 0.00 0.00 77 1014.1
20210919160005 67 50 2.6 5.2 0.00 0.00 0.00 77 1014.1
20210919155505 67 50 1.7 3.5 0.00 0.00 0.00 77 1014.1
20210919155004 67 48 2.6 6.1 0.00 0.00 0.00 77 1014.1
20210919154505 67 47 3.5 7.0 0.00 0.00 0.00 76 1014.1
20210919154005 67 46 2.6 7.0 0.00 0.00 0.00 77 1014.0
20210919153505 67 46 2.6 6.1 0.00 0.00 0.00 77 1014.1
20210919153005 67 48 2.6 6.1 0.00 0.00 0.00 76 1014.1
20210919152505 67 53 0.9 6.1 0.00 0.00 0.00 76 1014.1
20210919152005 68 87 0.0 3.5 0.00 0.00 0.00 74 1014.1
20210919151504 68 81 0.9 4.3 0.00 0.00 0.00 73 1014.1
20210919151004 68 77 0.9 4.3 0.00 0.00 0.00 72 1014.1
20210919150505 69 59 0.9 3.5 0.00 0.00 0.00 74 1014.1
20210919150005 69 54 0.9 4.3 0.00 0.00 0.00 73 1014.0
20210919145505 69 50 0.9 4.3 0.00 0.00 0.00 71 1014.0
20210919145004 69 56 0.9 4.3 0.00 0.00 0.00 72 1013.9
20210919144505 69 54 0.9 4.3 0.00 0.00 0.00 73 1013.9
20210919144005 68 46 0.9 4.3 0.00 0.00 0.00 73 1013.9
20210919143505 68 49 0.9 5.2 0.00 0.00 0.00 73 1013.9
20210919143005 68 53 0.9 5.2 0.00 0.00 0.00 73 1013.8
20210919142505 68 66 0.9 5.2 0.00 0.00 0.00 73 1013.9
20210919142005 68 69 0.9 5.2 0.00 0.00 0.00 72 1013.9
20210919141505 69 57 1.7 4.3 0.00 0.00 0.00 71 1013.9
20210919141005 69 52 1.7 7.8 0.00 0.00 0.00 70 1013.9
20210919140505 70 49 1.7 7.8 0.00 0.00 0.00 71 1013.9
20210919140005 70 46 2.6 7.8 0.00 0.00 0.00 69 1013.9
20210919135504 70 56 3.5 7.8 0.00 0.00 0.00 69 1013.8
20210919135005 70 73 2.6 7.8 0.00 0.00 0.00 68 1013.8
20210919134505 70 74 2.6 7.8 0.00 0.00 0.00 67 1013.8
20210919134005 71 52 3.5 8.7 0.00 0.00 0.00 68 1013.8
20210919133505 71 46 4.3 9.6 0.00 0.00 0.00 69 1013.8
20210919133004 70 46 4.3 9.6 0.00 0.00 0.00 69 1013.8
20210919132505 71 48 2.6 7.8 0.00 0.00 0.00 68 1013.8
20210919132005 71 47 3.5 9.6 0.00 0.00 0.00 69 1013.8
20210919131505 71 52 3.5 9.6 0.00 0.00 0.00 68 1013.8
20210919131005 71 72 2.6 7.0 0.00 0.00 0.00 68 1013.8
20210919130504 71 80 2.6 7.0 0.00 0.00 0.00 68 1013.9
20210919130004 71 68 1.7 6.1 0.00 0.00 0.00 68 1013.9
20210919125505 71 85 2.6 9.6 0.00 0.00 0.00 69 1014.0
20210919125005 71 93 2.6 9.6 0.00 0.00 0.00 69 1014.0
20210919124505 71 90 2.6 9.6 0.00 0.00 0.00 69 1014.1
20210919124004 71 68 3.5 8.7 0.00 0.00 0.00 70 1014.1
20210919123504 70 58 2.6 7.8 0.00 0.00 0.00 70 1014.1
20210919123005 70 74 2.6 7.8 0.00 0.00 0.00 71 1014.1
20210919122505 70 80 2.6 9.6 0.00 0.00 0.00 71 1014.1
20210919122005 70 66 3.5 9.6 0.00 0.00 0.00 72 1014.2
20210919121504 70 50 3.5 9.6 0.00 0.00 0.00 73 1014.2
20210919121004 70 47 2.6 9.6 0.00 0.00 0.00 74 1014.2
20210919120505 70 47 3.5 7.8 0.00 0.00 0.00 74 1014.3
20210919120005 70 46 3.5 8.7 0.00 0.00 0.00 75 1014.4
20210919115504 69 49 2.6 8.7 0.00 0.00 0.00 74 1014.4
20210919115005 69 51 1.7 6.1 0.00 0.00 0.00 74 1014.4
20210919114504 69 52 1.7 6.1 0.00 0.00 0.00 76 1014.4
20210919114005 69 69 2.6 7.0 0.00 0.00 0.00 75 1014.5
20210919113505 69 64 2.6 7.0 0.00 0.00 0.00 74 1014.5
20210919113005 68 53 1.7 8.7 0.00 0.00 0.00 74 1014.5
20210919112505 68 52 2.6 8.7 0.00 0.00 0.00 75 1014.5
20210919112005 68 49 2.6 7.0 0.00 0.00 0.00 76 1014.5
20210919111505 68 48 2.6 7.8 0.00 0.00 0.00 76 1014.5
20210919111004 68 50 2.6 7.8 0.00 0.00 0.00 75 1014.6
20210919110505 68 53 3.5 7.8 0.00 0.00 0.00 76 1014.5
20210919110005 68 49 4.3 7.8 0.00 0.00 0.00 75 1014.5
20210919105505 68 45 4.3 7.8 0.00 0.00 0.00 76 1014.4
20210919105004 68 46 4.3 7.8 0.00 0.00 0.00 76 1014.4
20210919104505 68 57 2.6 7.8 0.00 0.00 0.00 77 1014.5
20210919104004 67 68 0.9 7.0 0.00 0.00 0.00 77 1014.6
20210919103505 67 60 1.7 7.0 0.00 0.00 0.00 77 1014.6
20210919103005 67 59 2.6 7.8 0.00 0.00 0.00 76 1014.6
20210919102506 67 50 2.6 7.8 0.00 0.00 0.00 78 1014.6
20210919102005 67 56 2.6 7.0 0.00 0.00 0.00 78 1014.7
20210919101505 66 66 2.6 7.0 0.00 0.00 0.00 78 1014.7
20210919101004 66 54 2.6 7.0 0.00 0.00 0.00 77 1014.7
20210919100505 66 48 3.5 7.8 0.00 0.00 0.00 79 1014.6
20210919100005 66 51 3.5 8.7 0.00 0.00 0.00 78 1014.6
20210919095505 65 49 3.5 8.7 0.00 0.00 0.00 79 1014.5
20210919095005 65 47 4.3 8.7 0.00 0.00 0.00 79 1014.5
20210919094505 65 45 4.3 8.7 0.00 0.00 0.00 79 1014.5
20210919094005 65 44 4.3 9.6 0.00 0.00 0.00 79 1014.6
20210919093505 65 45 4.3 9.6 0.00 0.00 0.00 79 1014.6
20210919093004 64 45 5.2 9.6 0.00 0.00 0.00 80 1014.5
20210919092505 64 45 6.1 9.6 0.00 0.00 0.00 80 1014.5
20210919092005 64 45 7.0 9.6 0.00 0.00 0.00 80 1014.5
20210919091505 64 48 5.2 9.6 0.00 0.00 0.00 80 1014.5
20210919091005 63 52 4.3 8.7 0.00 0.00 0.00 80 1014.5
20210919090505 63 49 4.3 10.4 0.00 0.00 0.00 80 1014.5
20210919090005 63 45 5.2 10.4 0.00 0.00 0.00 80 1014.5
20210919085504 63 44 7.0 10.4 0.00 0.00 0.00 81 1014.4
20210919085005 62 45 7.8 11.3 0.00 0.00 0.00 81 1014.4
20210919084505 62 45 7.0 11.3 0.00 0.00 0.00 81 1014.3
20210919084005 62 45 7.0 9.6 0.00 0.00 0.00 81 1014.3
20210919083505 62 46 6.1 8.7 0.00 0.00 0.00 81 1014.3
20210919083006 61 46 5.2 8.7 0.00 0.00 0.00 81 1014.4
20210919082505 61 47 5.2 7.8 0.00 0.00 0.00 81 1014.4
20210919082004 61 45 5.2 8.7 0.00 0.00 0.00 82 1014.4
20210919081505 60 44 5.2 8.7 0.00 0.00 0.00 82 1014.3
20210919081005 59 45 6.1 8.7 0.00 0.00 0.00 83 1014.4
20210919080505 59 44 5.2 8.7 0.00 0.00 0.00 83 1014.4
20210919080005 59 43 5.2 7.8 0.00 0.00 0.00 84 1014.4
20210919075505 58 44 5.2 8.7 0.00 0.00 0.00 84 1014.3
20210919075005 58 44 5.2 8.7 0.00 0.00 0.00 84 1014.4
20210919074505 57 43 5.2 7.8 0.00 0.00 0.00 84 1014.3
20210919074004 57 42 5.2 8.7 0.00 0.00 0.00 85 1014.3
20210919073505 57 44 5.2 8.7 0.00 0.00 0.00 85 1014.2
20210919073005 56 44 5.2 7.8 0.00 0.00 0.00 85 1014.2
20210919072505 56 42 4.3 7.8 0.00 0.00 0.00 85 1014.2
20210919072005 56 43 3.5 7.0 0.00 0.00 0.00 85 1014.3
20210919071505 55 44 3.5 7.0 0.00 0.00 0.00 85 1014.3
20210919071005 55 45 3.5 6.1 0.00 0.00 0.00 85 1014.3
20210919070505 55 48 3.5 6.1 0.00 0.00 0.00 85 1014.3
20210919070006 54 48 3.5 6.1 0.00 0.00 0.00 85 1014.2
20210919065505 54 45 3.5 6.1 0.00 0.00 0.00 85 1014.2
20210919065005 54 43 3.5 6.1 0.00 0.00 0.00 85 1014.1
20210919064505 53 40 2.6 6.1 0.00 0.00 0.00 85 1014.0
20210919064005 53 36 0.9 6.1 0.00 0.00 0.00 85 1013.9
20210919063505 53 0 0.0 0.0 0.00 0.00 0.00 85 1013.9
20210919063005 52 0 0.0 0.0 0.00 0.00 0.00 85 1013.9
20210919062505 52 51 0.0 0.9 0.00 0.00 0.00 85 1014.0
20210919062005 51 51 0.0 0.9 0.00 0.00 0.00 85 1014.0